Location: Newark
(36.6333°N, 138.1833°E)
Time: 06:35:10
(UTC+00:00)

Envisat - Visible Passes

Search period start: 28 February 2020 00:00
Search period end: 09 March 2020 00:00
Orbit: 764 x 766 km, 98.1° (Epoch: 27 February)

Date Brightness Start Highest point End Pass type
(mag) Time Alt. Az. Time Alt. Az. Time Alt. Az.
28 Feb 6.0 09:44:50 10° SW 09:48:24 19° W 09:51:58 10° NW visible
28 Feb 6.1 20:16:45 10° NE 20:20:12 18° E 20:23:36 10° SE visible
29 Feb 4.4 09:06:35 10° S 09:11:24 44° W 09:16:16 10° NNW visible
01 Mar 5.1 20:41:17 10° NNE 20:45:51 33° E 20:50:22 10° SSE visible
02 Mar 5.6 09:32:55 10° SSW 09:37:01 24° W 09:41:07 10° NW visible
02 Mar 6.4 20:06:12 10° ENE 20:08:47 14° E 20:11:21 10° ESE visible
04 Mar 6.3 10:00:21 10° WSW 10:02:43 13° W 10:05:05 10° WNW visible
04 Mar 5.6 20:30:17 10° NE 20:34:29 25° E 20:38:38 10° SSE visible
05 Mar 5.2 09:21:11 10° SSW 09:25:39 31° W 09:30:09 10° NW visible
05 Mar 6.8 19:56:34 10° E 19:57:22 10° E 19:58:09 10° E visible
07 Mar 6.1 09:48:01 10° SW 09:51:18 17° W 09:54:37 10° NW visible
07 Mar 6.1 20:19:25 10° NE 20:23:06 20° E 20:26:45 10° SE visible
08 Mar 4.7 09:09:33 10° SSW 09:14:18 40° W 09:19:04 10° NNW visible
